This demonstration page uses our WeatherBlox Daily Observations layout. Learn more.

Left ArrowRight Arrow

34.74481, -87.66753

Hourly Observations for December 19, 2017

Temp ( °F °C ) Dew Point ( °F °C ) Humidity (%) Winds ( mph kmh ) Pressure ( in mb ) Visibility ( mi km ) Precip ( " mm )
12:53 am 00:53 Cloudy 49 9.4 47 8.3 93 93 Calm 30.19 1023 10 16 0.00 0.00
1:53 am 01:53 Cloudy 49 9.4 47 8.3 93 93 S 3 6 30.18 1022 10 16 0.00 0.00
2:53 am 02:53 Cloudy 50 10 48 8.9 93 93 Calm 30.18 1022 10 16 0.00 0.00
3:53 am 03:53 Cloudy 49 9.4 48 8.9 97 97 Calm 30.17 1022 10 16 0.00 0.00
4:53 am 04:53 Cloudy 50 10 48 8.9 93 93 Calm 30.18 1022 10 16 0.00 0.00
5:53 am 05:53 Cloudy 51 10.6 49 9.4 92 92 SSW 6 9 30.20 1023 10 16 0.00 0.00
6:53 am 06:53 Cloudy 51 10.6 50 10 96 96 W 3 6 30.21 1023 10 16 0.00 0.00
7:51 am 07:51 Cloudy 52 11 50 10 94 94 S 3 6 30.21 1023 10 16 0.01 0.25
7:53 am 07:53 Cloudy 52 11.1 50 10 93 93 Calm 30.21 1023 10 16 0.01 0.25
8:53 am 08:53 Cloudy 53 11.7 51 10.6 93 93 Calm 30.22 1023 10 16 0.00 0.00
9:03 am 09:03 Cloudy 53 11.7 51 10.6 93 93 WSW 3 6 30.24 1024 10 16 0.00 0.00
9:53 am 09:53 Cloudy 54 12.2 52 11.1 93 93 SSW 5 7 30.22 1023 10 16 0.00 0.00
10:53 am 10:53 Cloudy 55 12.8 53 11.7 93 93 Calm 30.19 1023 10 16 0.00 0.03
11:53 am 11:53 Cloudy 58 14.4 54 12.2 87 87 Calm 30.15 1021 10 16 0.00 0.00
12:53 pm 12:53 Cloudy 59 15 55 12.8 87 87 Calm 30.12 1020 10 16 0.00 0.00
1:53 pm 13:53 Cloudy with Light Rain 60 15.6 56 13.3 86 86 Calm 30.11 1020 10 16 0.00 0.03
2:53 pm 14:53 Cloudy 59 15 56 13.3 90 90 Calm 30.10 1019 10 16 0.01 0.25
3:27 pm 15:27 Cloudy 58 14.4 56 13.3 93 93 Calm 30.09 1019 10 16 0.00 0.03
3:53 pm 15:53 Cloudy 58 14.4 56 13.3 93 93 Calm 30.09 1019 10 16 0.00 0.03
4:53 pm 16:53 Cloudy with Rain 60 15.6 58 14.4 93 93 SSE 7 11 30.08 1019 10 16 0.04 1.02
5:41 pm 17:41 Cloudy with Light Rain 60 15.6 58 14.4 93 93 S 3 6 30.09 1019 10 16 0.05 1.27
5:53 pm 17:53 Cloudy with Rain 60 15.6 58 14.4 93 93 SSE 5 7 30.09 1019 10 16 0.07 1.78
6:29 pm 18:29 Cloudy with Light Rain 59 15 57 13.9 93 93 Calm 30.09 1019 10 16 0.04 1.02
6:49 pm 18:49 Cloudy with Light Rain 57 14 57 14 100 100 S 3 6 30.09 1019 10 16 0.05 1.27
6:53 pm 18:53 Cloudy with Light Rain 59 15 57 13.9 93 93 Calm 30.09 1019 10 16 0.05 1.27
7:10 pm 19:10 Cloudy with Light Rain 60 15.6 58 14.4 93 93 SSW 5 7 30.09 1019 10 16 0.02 0.51
7:53 pm 19:53 Cloudy with Light Rain 58 14.4 56 13.3 93 93 SSE 3 6 30.08 1019 10 16 0.04 1.02
8:36 pm 20:36 Cloudy with Rain 59 15 57 13.9 93 93 Calm 30.09 1019 10 16 0.03 0.76
8:45 pm 20:45 Cloudy with Light Rain 58 14.4 56 13.3 93 93 Calm 30.09 1019 10 16 0.04 1.02
8:53 pm 20:53 Cloudy with Light Rain 58 14.4 56 13.3 93 93 Calm 30.06 1018 10 16 0.04 1.02
9:09 pm 21:09 Cloudy with Rain 58 14.4 57 13.9 97 97 Calm 30.06 1018 10 16 0.02 0.51
9:38 pm 21:38 Cloudy with Rain 59 15 57 13.9 93 93 N 5 7 30.06 1018 10 16 0.06 1.52
9:53 pm 21:53 Cloudy with Rain 59 15 57 13.9 93 93 NNE 3 6 30.05 1018 10 16 0.09 2.29
10:25 pm 22:25 Cloudy with Rain 59 15 57 13.9 93 93 Calm 30.06 1018 10 16 0.09 2.29
10:38 pm 22:38 Cloudy with Light Rain 58 14.4 57 13.9 97 97 E 6 9 30.03 1017 10 16 0.10 2.54
10:53 pm 22:53 Cloudy 59 15 57 13.9 93 93 Calm 30.03 1017 10 16 0.10 2.54
11:05 pm 23:05 Cloudy with Light Rain 59 15 57 13.9 93 93 NNE 6 9 30.03 1017 10 16 0.01 0.25
11:53 pm 23:53 Cloudy with Heavy Rain 59 15 57 13.9 93 93 E 3 6 30.00 1016 10 16 0.14 3.56

Powered by AerisWeather